Regional Weather Roundup
Issued by NWS

Home | Current Version | Previous Version | Text Only | Print | Product List | Glossary On
Versions: 1 2 3 4 5 6 7 8 9 10 11 12 13 14 15 16 17 18 19 20 21 22 23 24 25 26 27 28 29 30 31 32 33 34 35 36 37 38 39 40 41 42 43 44 45 46 47 48 49 50
000
ASUS43 KDTX 300210
RWRMI
MICHIGAN HOURLY REGIONAL WEATHER ROUNDUP
NATIONAL WEATHER SERVICE DETROIT/PONTIAC MI
1000 PM EDT FRI APR 29 2016

NOTE: "FAIR" INDICATES FEW OR NO CLOUDS BELOW 12,000 FEET WITH NO
SIGNIFICANT WEATHER AND/OR OBSTRUCTION TO VISIBILITY.

MIZ047>049-052>055-059>063-066>070-074>076-081>083-300300-
SOUTHEAST LOWER MICHIGAN

CITY           SKY/WX    TMP DP  RH WIND       PRES   REMARKS
ADRIAN         CLOUDY    48  37  65 E6        30.17R
ALMA           CLEAR     44  38  81 CALM      30.16F
ANN ARBOR      CLOUDY    49  38  65 CALM      30.16R
BAD AXE        MOCLDY    43  30  59 CALM      30.18S
CARO           CLEAR     41  33  73 CALM      30.17S
DETROIT CITY   CLOUDY    47  33  58 E9        30.18R
DETROIT        CLOUDY    50  35  56 SE3       30.18R
FLINT          CLOUDY    50  37  61 N3        30.17R
GROSSE ILE     CLOUDY    48  43  81 S3        30.16R
HILLSDALE      CLOUDY    48  40  74 E9        30.15R
HOWELL         CLOUDY    48  37  65 CALM      30.17R

CITY           SKY/WX    TMP DP  RH WIND       PRES   REMARKS
JACKSON        CLOUDY    49  39  68 E6        30.16R
LAMBERTVILLE   CLOUDY    49  40  70 E3        30.18R
LANSING        CLOUDY    48  38  68 NE7       30.17R
LAPEER         CLOUDY    47  32  56 CALM      30.17R
MASON          CLOUDY    47  40  75 CALM      30.16S
MONROE         CLOUDY    47  40  76 S6        30.17R
MT. CLEMENS    CLOUDY    46  33  60 E8        30.16R
PONTIAC        CLOUDY    48  31  51 NE3       30.16R
PORT HOPE        N/A     39  31  72 CALM      30.17R
PORT HURON     CLOUDY    43  30  61 N6        30.18S
TRI CITIES     CLEAR     46  33  60 N6        30.18R
MIDLAND        FAIR      42  35  75 CALM      30.17S
TROY           CLOUDY    50  31  48 NE5       30.18R
SAGINAW HB     CLEAR     45  36  70 N5        30.17S
$$
MIZ043>046-050>051-056>058-064>065-071>073-077>080-300300-
SOUTHWEST LOWER MICHIGAN

CITY           SKY/WX    TMP DP  RH WIND       PRES   REMARKS
BATTLE CREEK   CLOUDY    48  39  71 NE7       30.16R
BENTON HARBOR  CLOUDY    46  41  82 CALM      30.15R
BIG RAPIDS     CLEAR     47  32  55 CALM      30.15R
COLDWATER      CLOUDY    50  41  73 NE8       30.14R
FREMONT        FAIR      45  35  67 CALM      30.15S
HOLLAND        CLEAR     47  40  76 E5        30.16R
GRAND RAPIDS   PTCLDY    46  38  73 E5        30.16S
IONIA          FAIR      43  38  80 NE5       30.15S
KALAMAZOO      CLOUDY    49  39  68 NE7       30.15R
LUDINGTON      CLEAR     40  36  86 CALM      30.16R
MARSHALL       CLOUDY    48  40  71 CALM      30.15R
MOUNT PLEASANT CLEAR     46  36  68 CALM      30.16
MUSKEGON       PTCLDY    44  33  65 N3        30.16S
SOUTH HAVEN    CLOUDY    42  40  93 CALM      30.15R
$$
MIZ016>042-300300-
NORTHERN LOWER MICHIGAN

CITY           SKY/WX    TMP DP  RH WIND       PRES   REMARKS
ALPENA         CLEAR     39  30  70 E3        30.19S
BEAVER ISLAND  CLEAR     40  33  75 CALM      30.19R
BELLAIRE       CLEAR     48  33  55 CALM      30.17R
CADILLAC       CLEAR     46  32  58 CALM      30.15R
CHARLEVOIX     CLEAR     43  33  67 NW3       30.20R
FRANKFORT      CLEAR     49  32  51 NE3       30.15S
GAYLORD        CLEAR     49  29  46 NE5       30.16R
GRAYLING       CLEAR     45  32  61 N5        30.17R
HARBOR SPRINGS CLEAR     47  31  54 NE5       30.18R
HOUGHTON LAKE  CLEAR     47  33  58 SE6       30.17R
MANISTEE       CLEAR     41  32  70 W3        30.15S
OSCODA         CLEAR     35  27  70 CALM      30.19R
PELLSTON       CLEAR     42  32  67 CALM      30.18R
ROGERS CITY    CLEAR     37  32  84 CALM      30.21R
TRAVERSE CITY  PTCLDY    49  33  54 VRB3      30.15R
$$
MIZ007>008-015-300300-
EASTERN UPPER MICHIGAN

CITY           SKY/WX    TMP DP  RH WIND       PRES   REMARKS
KINROSS          N/A     43  30  61 SW3       30.19R
MACKINAC ISLAN CLEAR     44  28  52 E6        30.19R
NEWBERRY       CLEAR     43  32  64 NW6       30.20R
S. S. MARIE    CLEAR     40  32  73 W8        30.19R WCI  34
MUNISING         N/A     39  35  86 E3        30.20R
$$
MIZ004>006-011>014-085-300300-
CENTRAL UPPER MICHIGAN

CITY           SKY/WX    TMP DP  RH WIND       PRES   REMARKS
MANISTIQUE     CLEAR     40  31  70 CALM      30.19R
ESCANABA       CLEAR     43  30  61 CALM      30.18S
MENOMINEE      CLOUDY    50  27  40 NE5       30.16S
SAWYER-GWINN   CLEAR     36  28  75 N7        30.17R WCI  30
$$
MIZ001>003-009>011-084-300300-
WESTERN UPPER MICHIGAN

CITY           SKY/WX    TMP DP  RH WIND       PRES   REMARKS
IRON MOUNTAIN  CLEAR     49  27  42 E5        30.16R
HOUGHTON       CLEAR     41  28  60 E3        30.21R
COPPER HARBOR    N/A     38  32  79 SW3       30.22R
IRONWOOD         N/A     37  34  87 CALM      30.18R
$$

ABBREVIATIONS USED IN REMARKS
   TC - TEMPERATURE IN CELSIUS
  WCI - WIND CHILL INDEX
   HX - HEAT INDEX
  VSB - VISIBILITY





USA.gov is the U.S. government's official web portal to all federal, state and local government web resources and services.